Regional Weather Roundup
Issued by NWS Green Bay, WI

Home | Current Version | Previous Version | Graphics & Text | Print | Product List | Glossary Off
Versions: 1 2 3 4 5 6 7 8 9 10 11 12 13 14 15 16 17 18 19 20 21 22 23 24 25 26 27 28 29 30 31 32 33 34 35 36 37 38 39 40 41 42 43 44 45 46 47 48 49 50

000
ASUS43 KGRB 271511
RWRGRB

NORTH-CENTRAL AND NORTHEAST WISCONSIN REGIONAL WEATHER ROUNDUP
NATIONAL WEATHER SERVICE GREEN BAY WI
1000 AM CDT SAT AUG 27 2016

WIZ005-009-010>012-018-019-271600-
NORTH CENTRAL WISCONSIN

CITY           SKY/WX    TMP DP  RH WIND       PRES   REMARKS
IRONWOOD       MOSUNNY   66  54  65 S7        30.14R
MANITOWISH WTR PTSUNNY   65  58  77 S6        30.13F
ARBOR VITAE    CLOUDY    65  56  71 SE7       30.14S
EAGLE RIVER    CLOUDY    64  53  68 SE5       30.14S
LAND O LAKES   CLOUDY    66  54  65 S6        30.16R
RHINELANDER    MOSUNNY   64  58  80 SE8       30.15S
PHILLIPS       CLOUDY    63  56  80 S6        30.13S
ANTIGO         MOSUNNY   61  58  89 SE8       30.14F
TOMAHAWK       MOSUNNY   64  56  75 CALM      30.14S
MERRILL        CLOUDY    64  58  80 CALM      30.13F
$$

WIZ013-073-271600-
NORTHEAST WISCONSIN

CITY           SKY/WX    TMP DP  RH WIND       PRES   REMARKS
IRON MOUNTAIN  CLOUDY    63  58  83 CALM      30.13F
MARINETTE      RAIN     N/A N/A N/A S6        30.14
OCONTO         CLOUDY    63  61  94 SE6       30.12F
$$

WIZ017-030-035>037-045-271600-
CENTRAL WISCONSIN

CITY           SKY/WX    TMP DP  RH WIND       PRES   REMARKS
MEDFORD        SUNNY     65  58  79 SE8       30.11F
WAUSAU         CLOUDY    63  58  83 SE10      30.11F
MOSINEE        PTSUNNY   63  61  94 E7        30.13F
MARSHFIELD     CLOUDY    64  57  78 SE12      30.10F
WISC RAPIDS    LGT RAIN  62  61  96 E9        30.11F
STEVENS POINT  CLOUDY    60  58  94 SE10      30.12F
WAUPACA        DRIZZLE   64  63  97 E6        30.12F
SHAWANO        LGT RAIN  65  61  87 E5        30.13F
CLINTONVILLE   DRIZZLE   63  59  88 SE6       30.13F
WAUTOMA        CLOUDY    62  60  93 E8        30.11F
$$

WIZ038-039-048-051-271600-
FOX VALLEY

CITY           SKY/WX    TMP DP  RH WIND       PRES   REMARKS
NWS GREEN BAY  LGT RAIN  62  62 100 E8        30.12F
APPLETON       LGT RAIN  61  61 100 E7        30.11F
OSHKOSH        LGT RAIN  64  61  90 E9        30.09F
FOND DU LAC    HVY RAIN  62  60  93 E8        30.09F FOG
$$

WIZ022-050-052-271600-
EAST CENTRAL WISCONSIN

CITY           SKY/WX    TMP DP  RH WIND       PRES   REMARKS
EPHRAIM        LGT RAIN  61  61  98 S6        30.14F
WASHINGTON ISL NOT AVBL
STURGEON BAY   LGT RAIN  61  57  87 E7        30.15S
MANITOWOC      LGT RAIN  61  59  93 MISG      30.13F
SHEBOYGAN      RAIN      61  59  93 NE8       30.11F FOG
$$

LMZ563-521-522-541>543-271600-
LAKESHORE

STATION/POSITION TIME  TEMP    WIND        PRES    VSBY  WAVE
                       AIR SEA DIR/SP/G                  HT/PER
                 (UTC) (F)     (DEG/KT/KT) (MB)    (MI)  (FT/S)
SHEBOYGAN LKSHOR 1500   60     350/ 11/ 12 1019.1F
KEWAUNEE LKSHORE 1400   59     170/  6/  6 1020.4R
NORTHPORT PIER   1400   65     200/  2/  5 1021.0R
N MID LAKE BUOY  1450   66 69  160/ 12/ 14 1020.5S         2/ 3
S GREEN BAY BUOY 1430   64 71  120/ 12/ 14 1020.1S
SISTER BAY LKSHO 1437   62     180/  7/  9   N/A
CHAMBERS ISLAND  1400   65      CALM  /  2 1021.0
MENOMINEE LKSHOR 1400   66     110/  9/ 10 1019.7S
$$



USA.gov is the U.S. government's official web portal to all federal, state and local government web resources and services.